Tracking 35334 objects as of 13-Sep-2026
HD Live streaming from Space Station
objects crossing your sky now

CORVUS BC1

Track CORVUS BC1 now!
10-day predictions
CORVUS BC1 is classified as:


NORAD ID: 42847
Int'l Code: 2017-042Y
Launch date: July 14, 2017
Source: United States (US)
Launch site: TYURATAM MISSILE AND SPACE COMPLEX (TTMTR)

Uplink (MHz):
Downlink (MHz): 400.175
Beacon (MHz):
Mode: FM
Call sign:
Status: Inactive

Your satellite tracking list
Your tracking list is empty




NASA's NSSDC Master Catalog

Two Line Element Set (TLE):
1 42847U 17042Y   26256.38504472  .00002877  00000-0  19633-3 0  9992
2 42847  97.4208  55.2630 0012683 140.8551 219.3597 15.06911050500371
Source of the keplerian elements: AFSPC